PROGRESS-MS 21

Last updated on Sun Feb 19 2023 00:02:07 GMT+0000 (Coordinated Universal Time)

1 54155U 22140A 23049.74738307 .00026652 00000+0 47350-3 0 9998 2 54155 51.6434 195.1799 0007996 14.3196 58.8699 15.49965183 17960

Satellite not in orbit

PROGRESS-MS 21